User: anonymous   Login
Location: G�ppingen
(48.7089°N, 9.6563°E)
Time: 04:50:09
(UTC+02:00)
Language:

M-CUBED/EXP-1 PRIME - Orbit

View from above orbital plane
View from above orbital plane
View from above satellite
View from above satellite

Ground track
Ground track

The orbit data is extracted from the following two-line orbital elements,

1 37855U 11061F   19289.49048771  .00001469  00000-0  80588-4 0  9999
2 37855 101.7168 246.5941 0172996  81.5801 280.4978 15.05646381434808
Epoch (UTC): 16 October 2019 11:46:18
Eccentricity: 0.0172996
inclination: 101.7168°
perigee height: 429 km
apogee height: 669 km
right ascension of ascending node: 246.5941°
argument of perigee: 81.5801°
revolutions per day: 15.05646381
mean anomaly at epoch: 280.4978°
orbit number at epoch: 43480

The dashed part of the orbit path shows where the satellite is in the earth's shadow,  

DLR